Content
SEND FEEDBACK

Daily
Averages
Monthly
Summary
United States of America

ST. LOUIS, MISSOURI


Home > North America > United States > Missouri
Elevation: 535 feet     Latitude: 38 45N     Longitude: 090 22W

WEATHER
 
SELECT A DAY
Number of Records: 201,437;   Date Range: 1/1/95 - 12/25/14
 
SHARE

PRINT THIS DATA

[ ← Previous Day ]
WEATHER ALMANAC - APRIL 10, 2014
[ Next Day → ]
[ °C ]   °F
Weather ElementAverageHighLow
Temperature66.4 °F81 °F (1:54 pm)55 °F (3:54 am)
Dewpoint39.3 °F46.9 °F (4:54 pm)33.1 °F (1:54 am)
Humidity37.7 %49 % (6:54 am)25 % (12:54 pm)
Barometer29.83 in29.96 in (9:54 pm)29.75 in (1:54 pm)
Wind Speed11.2 mph18.4 mph (11:54 am)
Wind Gust31.1 mph (11:54 am)
Weather ElementAverage
Visibility10 mi
Wind DirectionSSW (194.8 °)

Weather ElementTotal
Precipitation---
Cooling Degree Days3 (Base 65)
Growing Degree Days18 (Base 50)
Averaged from 23 records on April 10, 2014
WEATHER CONDITIONS BREAKOUT
WIND DIRECTION BREAKOUT
WEATHER BY HOUR - APRIL 10, 2014
[ °C ]   °F
Local TimeTemperatureDewpointHumidityBarometerVisibilityWind DirectionWind SpeedGust SpeedPrecipitationEventsConditions
1:54 AM57.0 °F33.1 °F40 %29.88 in10.0 miSSW (200°)10.4 mphClear
2:54 AM57.0 °F34.0 °F42 %29.86 in10.0 miSouth (190°)6.9 mphClear
3:54 AM55.0 °F34.0 °F45 %29.86 in10.0 miSouth (180°)5.8 mphClear
4:54 AM55.9 °F35.1 °F45 %29.82 in10.0 miSouth (180°)10.4 mph16.1 mphClear
5:54 AM55.9 °F35.1 °F45 %29.82 in10.0 miSSW (200°)11.5 mph17.3 mphClear
6:54 AM55.0 °F36.0 °F49 %29.82 in10.0 miSouth (190°)9.2 mphClear
7:54 AM57.9 °F36.0 °F44 %29.81 in10.0 miSouth (190°)12.7 mph19.6 mphClear
8:54 AM63.0 °F37.9 °F40 %29.79 in10.0 miSSW (210°)13.8 mph23.0 mphClear
9:54 AM70.0 °F39.0 °F32 %29.80 in10.0 miSW (230°)15.0 mph21.9 mphClear
10:54 AM73.0 °F41.0 °F31 %29.80 in10.0 miWSW (240°)17.3 mph23.0 mphMostly Cloudy
11:54 AM77.0 °F41.0 °F28 %29.78 in10.0 miWSW (250°)18.4 mph31.1 mphMostly Cloudy
12:54 PM80.1 °F41.0 °F25 %29.76 in10.0 miSW (230°)16.1 mph28.8 mphMostly Cloudy
1:54 PM81.0 °F42.1 °F25 %29.75 in10.0 miWSW (250°)16.1 mph27.6 mphMostly Cloudy
2:54 PM81.0 °F43.0 °F26 %29.76 in10.0 miWest (270°)11.5 mph24.2 mphMostly Cloudy
3:54 PM77.0 °F46.0 °F33 %29.77 in10.0 miNW (320°)16.1 mph21.9 mphOvercast
4:54 PM73.9 °F46.9 °F38 %29.79 in10.0 miNorth (350°)15.0 mph20.7 mphMostly Cloudy
5:54 PM73.9 °F46.0 °F37 %29.81 in10.0 miNNW (340°)12.7 mphPartly Cloudy
6:54 PM69.1 °F43.0 °F39 %29.85 in10.0 miNorth (10°)11.5 mphMostly Cloudy
7:54 PM66.0 °F42.1 °F42 %29.86 in10.0 miNNE (20°)4.6 mphMostly Cloudy
8:54 PM64.9 °F42.1 °F43 %29.90 in10.0 miNorth (360°)6.9 mphMostly Cloudy
9:54 PM62.1 °F37.9 °F41 %29.96 in10.0 miNorth (10°)9.2 mphMostly Cloudy
10:54 PM61.0 °F36.0 °F39 %29.95 in10.0 miNE (40°)3.5 mphOvercast
11:54 PM61.0 °F36.0 °F39 %29.95 in10.0 miNNE (20°)3.5 mphOvercast
Hourly data recorded from KSUS, located miles away from St. Louis, Missouri







STORIES FROM OUR PARTNERS